Home > Weather > Tiraspol > Past weeks

Flag for Moldova Weather for the Past 2 Weeks in Tiraspol, Moldova

Now
50 °F

Passing clouds.


Feels Like: 43 °F
Forecast: 32 / 48 °F
Wind: 22 mph from West

Location: Chisinau International Airport

Current Time: Feb 11, 2016 at 1:41:39 PM

Latest Report: Feb 11, 2016 at 1:00 PM


Visibility: N/A

Pressure: 29.56 "Hg

Humidity: 47%

Dew point: 30 °F

Location of TiraspolLocation

Historic Weather in Tiraspol — Graph

°F

Tiraspol Temperature Yesterday

Maximum temperature yesterday: 48 °F (at 12:30 PM)
Minimum temperature yesterday: 34 °F (at 1:00 AM)
Average temperature yesterday: 42 °F

High & Low Weather Summary for the Past Weeks

 TemperatureHumidityPressure
High54 °F (Feb 3, 1:30 PM)100% (Jan 30, 6:00 PM)30.39 "Hg (Jan 30, 6:00 PM)
Low25 °F (Feb 7, 2:00 AM)47% (Feb 11, 12:30 PM)29.42 "Hg (Feb 11, 4:30 AM)
Average39 °F80%30.07 "Hg
* Reported Jan 27 12:00 Noon — Feb 11 12:30 PM, Tiraspol, Weather by CustomWeather, © 2016

Note: Actual official high and low records may vary slightly from our data, if they occured in-between our weather recording intervals... More about our weather records

Advertising

Tiraspol Weather History for the Previous 24 Hours

 ConditionsComfort  
Time TempWeatherWind HumidityBarometerVisibility
12:30 PM
Thu, Feb 11
50 °FScattered clouds.21 mph47%29.56 "HgN/A
12:00 PM48 °FPassing clouds.17 mph54%29.53 "HgN/A
11:30 AM46 °FPassing clouds.10 mph66%29.53 "HgN/A
11:00 AM46 °FPartly sunny.7 mph76%29.53 "HgN/A
10:30 AM45 °FPartly sunny.9 mph81%29.50 "HgN/A
10:00 AM45 °FPartly sunny.10 mph81%29.50 "HgN/A
9:30 AM45 °FPartly sunny.10 mph81%29.47 "HgN/A
9:00 AM45 °FPartly sunny.8 mph87%29.45 "HgN/A
8:30 AM45 °FSprinkles. Partly sunny.9 mph87%29.45 "HgN/A
8:00 AM45 °FSprinkles. Partly sunny.7 mph93%29.45 "HgN/A
7:30 AM45 °FSprinkles. Broken clouds.8 mph93%29.45 "HgN/A
7:00 AM45 °FSprinkles. Passing clouds.8 mph93%29.45 "HgN/A
6:30 AM46 °FSprinkles. Partly cloudy.12 mph93%29.45 "Hg4 mi
6:00 AM46 °FSprinkles. Partly cloudy.15 mph93%29.42 "Hg4 mi
5:30 AM46 °FSprinkles. Mostly cloudy.15 mph93%29.42 "Hg3 mi
4:30 AM46 °FSprinkles. Mostly cloudy.16 mph87%29.42 "HgN/A
4:00 AM46 °FSprinkles. Partly cloudy.15 mph87%29.45 "Hg6 mi
3:30 AM46 °FLight rain. Partly cloudy.17 mph87%29.45 "HgN/A
3:00 AM46 °FPartly cloudy.15 mph82%29.45 "HgN/A
2:00 AM46 °FPassing clouds.17 mph82%29.45 "HgN/A
1:30 AM46 °FPassing clouds.22 mph82%29.47 "HgN/A
1:00 AM46 °FLight rain. Passing clouds.22 mph82%29.47 "HgN/A
12:00 AM46 °FPassing clouds.20 mph82%29.50 "HgN/A
11:00 PM
Wed, Feb 10
46 °FPartly cloudy.16 mph87%29.53 "HgN/A
10:30 PM46 °FPartly cloudy.18 mph87%29.53 "HgN/A
10:00 PM46 °FPartly cloudy.17 mph82%29.53 "HgN/A
9:30 PM46 °FPartly cloudy.20 mph82%29.53 "HgN/A
9:00 PM45 °FPartly cloudy.20 mph87%29.53 "HgN/A
8:30 PM45 °FPartly cloudy.22 mph87%29.53 "HgN/A
8:00 PM45 °FPartly cloudy.20 mph87%29.56 "HgN/A
7:30 PM45 °FPassing clouds.20 mph87%29.56 "HgN/A
7:00 PM46 °FPassing clouds.16 mph82%29.56 "HgN/A
6:30 PM46 °FMostly cloudy.16 mph87%29.56 "HgN/A
6:00 PM46 °FOvercast.18 mph87%29.59 "HgN/A
5:30 PM46 °FMostly cloudy.16 mph87%29.59 "HgN/A
5:00 PM46 °FMostly cloudy.20 mph87%29.59 "HgN/A
4:30 PM48 °FMostly cloudy.20 mph82%29.59 "HgN/A
4:00 PM48 °FMostly cloudy.18 mph87%29.59 "HgN/A
3:30 PM48 °FMostly cloudy.21 mph87%29.59 "HgN/A
3:00 PM48 °FMostly cloudy.17 mph87%29.62 "HgN/A
2:30 PM48 °FMostly cloudy.16 mph87%29.62 "HgN/A
2:00 PM48 °FMostly cloudy.14 mph87%29.65 "HgN/A
1:30 PM48 °FMostly cloudy.17 mph82%29.65 "HgN/A
1:00 PM48 °FMostly cloudy.16 mph82%29.68 "HgN/A
Weather by CustomWeather, © 2016

See weather overviewHow to use our weather pages